Regional Weather Roundup
Issued by NWS

Home | Current Version | Previous Version | Text Only | Print | Product List | Glossary Off
Versions: 1 2 3 4 5 6 7 8 9 10 11 12 13 14 15 16 17 18 19 20 21 22 23 24 25 26 27 28 29 30 31 32 33 34 35 36 37 38 39 40 41 42 43 44 45 46 47 48 49 50

000
ASUS43 KIND 221109
RWRIN

WEATHER ROUNDUP FOR INDIANA
NATIONAL WEATHER SERVICE INDIANAPOLIS IN
600 AM EST MON DEC 22 2014

NOTE: "FAIR" INDICATES FEW OR NO CLOUDS BELOW 12,000 FEET WITH NO
SIGNIFICANT WEATHER AND/OR OBSTRUCTIONS TO VISIBILITY.

* - STATION DOES NOT REPORT WEATHER SUCH AS PRECIPITATION OR FOG.

+ - STATION NOT QUALITY CONTROLLED BY THE NATIONAL WEATHER SERVICE.
    USE DATA WITH CAUTION...ESPECIALLY DEWPOINT AND RELATIVE
    HUMIDITY OBSERVATIONS.

INZ001>003-010>013-019-020-221200-
NORTHWEST INDIANA

CITY           SKY/WX    TMP DP  RH WIND       PRES   REMARKS
GARY /AIRPORT/ CLOUDY    32  25  74 SE9       29.98F HAZE    WCI  24
KNOX *+        MOCLDY    29  24  79 SE8       29.99S WCI  21
LA PORTE +     MOCLDY    29  28  93 E6        30.00S FOG     WCI  23
MICHIGAN CITY+ MOCLDY    30  23  74 SE6       30.00S WCI  24
MONTICELLO +   CLOUDY    30  27  89 E5        29.98F WCI  25
RENSSELAER +   CLOUDY    32  32 100 SE8       29.98S FOG     WCI  25
VALPARAISO     MOCLDY    28  25  88 E6        29.98F FOG     WCI  22

$$

LMZ046-743>745-221200-
SOUTHERN LAKE MICHIGAN

STATION/POSITION TIME  TEMP WIND        PRES
                       AIR  DIR/SP/G
                 (UTC) (F)  (DEG/KT/KT) (MB)

$$

INZ004-005-014>016-021>024-221200-
NORTH CENTRAL INDIANA

CITY           SKY/WX    TMP DP  RH WIND       PRES   REMARKS
GOSHEN         MOCLDY    28  24  85 SE9       30.01F FOG     WCI  19
LOGANSPORT +   CLOUDY    28  27  93 E9        30.00F FOG     WCI  20
PERU/GRISSOM   MOCLDY    28  28 100 E8        29.99F WCI  20
ROCHESTER +    MOCLDY    32  28  86 E7        30.01S FOG     WCI  26
SOUTH BEND     MOCLDY    28  24  85 E7        30.01F WCI  21
WARSAW +       CLOUDY    28  27  93 E5        30.01F FOG     WCI  23

$$

INZ006>009-017-018-025>027-221200-
NORTHEAST INDIANA

CITY           SKY/WX    TMP DP  RH WIND       PRES   REMARKS
ANGOLA *+      CLEAR     25  21  86 SE7       30.03F WCI  17
AUBURN +       MOCLDY    27  23  86 E6        30.05S FOG     WCI  20
FORT WAYNE     MOCLDY    26  23  88 E7        30.03F FOG     WCI  18
HUNTINGTON +   MOCLDY    26  24  92 CALM      30.02S

$$

INZ028-029-035-036-043>045-051>053-221200-
WEST CENTRAL INDIANA

CITY           SKY/WX    TMP DP  RH WIND       PRES   REMARKS
GREENCASTLE +  CLOUDY    30  27  86 E6        29.96F WCI  24
LAFAYETTE      CLOUDY    30  27  88 E7        29.98F WCI  23
TERRE HAUTE    CLOUDY    33  28  81 SE6       29.95F WCI  28

$$

INZ030>032-037>040-046>048-054>057-064-065-221200-
CENTRAL INDIANA

CITY           SKY/WX    TMP DP  RH WIND       PRES   REMARKS
CP ATTERBURY + CLOUDY    32  28  86 MISG      29.98F
FRANKFORT +    MOCLDY    31  29  93 E8        29.99F WCI  23
INDIANAPOLIS   CLOUDY    30  26  85 E6        29.96F WCI  24
-EAGLE CREEK   CLOUDY    30  26  85 CALM      29.98S
KOKOMO *+      MOCLDY    28  25  86 SE8       29.99F WCI  20
MARION +       PTCLDY    28  24  87 SE8       30.00F WCI  19
MT COMFORT *+  CLOUDY    32  25  74 SE7       29.98F WCI  26
SHELBYVILLE    CLOUDY    34  28  79 E6        29.98F WCI  29
ZIONSVILLE +   CLOUDY    30  26  83 SE5       29.98F WCI  25

$$

INZ033-034-041-042-049-050-058-059-221200-
EAST CENTRAL INDIANA

CITY           SKY/WX    TMP DP  RH WIND       PRES   REMARKS
MUNCIE         CLOUDY    30  26  85 SE7       30.00F WCI  23

$$

INZ060-061-067>069-081>083-085>088-221200-
SOUTHWEST INDIANA

CITY           SKY/WX    TMP DP  RH WIND       PRES   REMARKS
EVANSVILLE     CLOUDY    38  31  76 E5        29.94F
HUNTINGBURG *+ CLOUDY    37  30  75 SE9       29.95F
WASHINGTON +   CLOUDY    34  29  83 E5        29.95S WCI  30

$$

INZ062-063-066-070>080-084-089>092-221200-
SOUTH CENTRAL AND SOUTHEAST INDIANA

CITY           SKY/WX    TMP DP  RH WIND       PRES   REMARKS
BLOOMINGTON    CLOUDY    32  28  85 SE7       29.96F WCI  26

$$




USA.gov is the U.S. government's official web portal to all federal, state and local government web resources and services.